Location: Newark
(26.0814°N, 97.8289°W)
Time: 14:38:07
(UTC+00:00)

LightSail 2 - Pass Details

Date: 29 January 2020
Orbit: 697 x 724 km, 24.0° (Epoch: 29 February)

Event Time Altitude Azimuth Distance (km) Brightness Sun altitude
Rises 02:06:49 0° 265° (W) 3,072 9.8 -25.9°
Reaches altitude 10° 02:09:49 10° 248° (WSW) 2,159 8.6 -26.6°
Maximum altitude 02:13:26 20° 202° (SSW) 1,616 7.2 -27.4°
Enters shadow 02:15:09 17° 177° (S) 1,755 7.2 -27.8°
